CW7427 Weather Reports


time (UTC)temp
C
wind
direction
speed
KPH
gust
KPH
rain 1hr
cm
rain 24hr
cm
rain mn
cm
humidity
%
barometer
mb
20260509090245 14 110 0.0 0.0 0.00 0.00 0.00 79 1023.4
20260509085738 14 110 0.0 0.0 0.00 0.00 0.00 78 1023.4
20260509085228 14 110 0.0 0.0 0.00 0.00 0.00 79 1023.3
20260509084704 14 110 0.0 0.0 0.00 0.00 0.00 78 1023.2
20260509084201 14 110 0.0 0.0 0.00 0.00 0.00 77 1023.2
20260509083658 15 110 0.0 0.0 0.00 0.00 0.00 77 1023.1
20260509083149 14 110 0.0 0.0 0.00 0.00 0.00 77 1023.0
20260509082638 15 110 0.0 0.0 0.00 0.00 0.00 76 1023.0
20260509082135 15 110 0.0 0.0 0.00 0.00 0.00 75 1022.9
20260509081632 15 110 0.0 0.0 0.00 0.00 0.00 74 1022.9
20260509081056 15 110 0.0 0.0 0.00 0.00 0.00 73 1022.8
20260509080546 15 110 0.0 0.0 0.00 0.00 0.00 73 1022.7
20260509080036 16 110 0.0 0.0 0.00 0.00 0.00 72 1022.7
20260509075538 16 110 0.0 0.0 0.00 0.00 0.00 71 1022.7
20260509075033 16 110 0.0 1.6 0.00 0.00 0.00 70 1022.6
20260509074529 16 110 0.0 1.6 0.00 0.00 0.00 70 1022.5
20260509074225 16 71 0.0 1.6 0.00 0.00 0.00 69 1022.4
20260509073729 16 71 0.0 0.0 0.00 0.00 0.00 68 1022.4
20260509072944 17 71 0.0 0.0 0.00 0.00 0.00 67 1022.3
20260509072703 17 71 0.0 1.6 0.00 0.00 0.00 66 1022.3
20260509071932 17 71 0.0 6.4 0.00 0.00 0.00 66 1022.3
20260509071422 17 71 1.6 8.0 0.00 0.00 0.00 65 1022.2
20260509070913 17 64 1.6 8.0 0.00 0.00 0.00 64 1022.2
20260509070406 17 64 0.0 6.4 0.00 0.00 0.00 64 1022.1
20260509065855 18 61 0.0 6.4 0.00 0.00 0.00 64 1022.1
20260509065345 18 61 0.0 6.4 0.00 0.00 0.00 63 1022.0
20260509064837 18 60 0.0 6.4 0.00 0.00 0.00 63 1021.9
20260509064332 18 59 0.0 6.4 0.00 0.00 0.00 63 1021.8
20260509063816 18 57 0.0 6.4 0.00 0.00 0.00 62 1021.9
20260509063520 18 57 0.0 6.4 0.00 0.00 0.00 61 1021.8
20260509063008 18 55 0.0 8.0 0.00 0.00 0.00 61 1021.7
20260509062233 18 104 0.0 8.0 0.00 0.00 0.00 60 1021.6
20260509061716 18 106 1.6 8.0 0.00 0.00 0.00 60 1021.6
20260509061212 18 113 1.6 8.0 0.00 0.00 0.00 59 1021.5
20260509060649 19 102 1.6 8.0 0.00 0.00 0.00 59 1021.5
20260509060139 19 100 1.6 9.7 0.00 0.00 0.00 59 1021.4
20260509055641 19 103 1.6 9.7 0.00 0.00 0.00 58 1021.4
20260509055136 19 105 1.6 11.3 0.00 0.00 0.00 58 1021.4
20260509054855 19 105 1.6 11.3 0.00 0.00 0.00 57 1021.4
20260509054349 19 79 1.6 9.7 0.00 0.00 0.00 57 1021.3
20260509053603 20 77 1.6 9.7 0.00 0.00 0.00 57 1021.3
20260509053106 20 86 0.0 8.0 0.00 0.00 0.00 56 1021.2
20260509052826 20 84 0.0 8.0 0.00 0.00 0.00 56 1021.1
20260509052104 20 72 0.0 8.0 0.00 0.00 0.00 56 1021.1
20260509051604 20 77 0.0 9.7 0.00 0.00 0.00 56 1021.1
20260509051053 20 77 1.6 9.7 0.00 0.00 0.00 55 1021.1
20260509050543 20 65 1.6 8.0 0.00 0.00 0.00 54 1021.0
20260509050042 20 135 0.0 8.0 0.00 0.00 0.00 54 1021.0
20260509045532 20 123 0.0 4.8 0.00 0.00 0.00 50 1021.1
20260509045021 20 40 0.0 0.0 0.00 0.00 0.00 47 1021.0
20260509044512 20 40 0.0 6.4 0.00 0.00 0.00 48 1021.0
20260509044229 20 40 0.0 6.4 0.00 0.00 0.00 48 1021.0
20260509043457 20 40 0.0 1.6 0.00 0.00 0.00 48 1021.0
20260509042946 20 40 0.0 4.8 0.00 0.00 0.00 49 1021.1
20260509042437 20 40 0.0 4.8 0.00 0.00 0.00 48 1021.0
20260509041929 20 40 0.0 3.2 0.00 0.00 0.00 49 1021.1
20260509041425 20 38 0.0 3.2 0.00 0.00 0.00 49 1021.1
20260509040917 20 38 0.0 9.7 0.00 0.00 0.00 48 1021.2
20260509040403 20 38 0.0 9.7 0.00 0.00 0.00 49 1021.2
20260509035854 20 38 0.0 0.0 0.00 0.00 0.00 48 1021.2
20260509035343 20 38 0.0 0.0 0.00 0.00 0.00 48 1021.2
20260509035106 20 38 0.0 4.8 0.00 0.00 0.00 48 1021.1
20260509034331 20 38 0.0 4.8 0.00 0.00 0.00 49 1021.1
20260509033821 21 38 0.0 1.6 0.00 0.00 0.00 48 1021.2
20260509033321 21 38 0.0 3.2 0.00 0.00 0.00 48 1021.1
20260509033025 21 38 0.0 3.2 0.00 0.00 0.00 48 1021.2
20260509032255 21 38 0.0 0.0 0.00 0.00 0.00 48 1021.3
20260509031751 21 38 0.0 0.0 0.00 0.00 0.00 48 1021.3
20260509031725 20 38 0.0 3.2 0.00 0.00 0.00 49 1021.4
20260509030733 20 38 0.0 3.2 0.00 0.00 0.00 49 1021.5
20260509030455 20 56 0.0 0.0 0.00 0.00 0.00 48 1021.5
20260509025950 20 56 0.0 0.0 0.00 0.00 0.00 49 1021.6
20260509025227 20 56 0.0 1.6 0.00 0.00 0.00 49 1021.7
20260509024715 20 56 0.0 1.6 0.00 0.00 0.00 49 1021.7
20260509024155 20 56 0.0 3.2 0.00 0.00 0.00 52 1021.9
20260509023910 20 56 0.0 3.2 0.00 0.00 0.00 51 1022.0
20260509023135 20 56 0.0 8.0 0.00 0.00 0.00 50 1022.1
20260509022629 20 56 0.0 8.0 0.00 0.00 0.00 51 1022.1
20260509022123 20 55 0.0 3.2 0.00 0.00 0.00 51 1022.2
20260509021613 20 55 0.0 1.6 0.00 0.00 0.00 53 1022.2
20260509021326 20 55 0.0 3.2 0.00 0.00 0.00 54 1022.2
20260509020553 19 55 0.0 8.0 0.00 0.00 0.00 53 1022.4
20260509020042 20 55 0.0 8.0 0.00 0.00 0.00 51 1022.5
20260509015533 20 53 0.0 8.0 0.00 0.00 0.00 53 1022.5
20260509015025 20 292 0.0 3.2 0.00 0.00 0.00 56 1022.6
20260509014517 20 292 0.0 3.2 0.00 0.00 0.00 54 1022.6
20260509014007 20 293 0.0 1.6 0.00 0.00 0.00 54 1022.7
20260509013457 19 294 0.0 1.6 0.00 0.00 0.00 57 1022.8
20260509012951 19 294 0.0 1.6 0.00 0.00 0.00 58 1022.7
20260509012705 19 294 0.0 3.2 0.00 0.00 0.00 57 1022.8
20260509011936 18 294 0.0 3.2 0.00 0.00 0.00 58 1022.8
20260509011435 19 289 0.0 0.0 0.00 0.00 0.00 58 1022.8
20260509010930 18 289 0.0 1.6 0.00 0.00 0.00 56 1022.9
20260509010428 18 289 0.0 3.2 0.00 0.00 0.00 58 1022.9
20260509010148 19 288 0.0 3.2 0.00 0.00 0.00 58 1022.9
20260509005409 18 288 0.0 1.6 0.00 0.00 0.00 60 1023.0
20260509005127 19 288 0.0 1.6 0.00 0.00 0.00 58 1023.0
20260509004349 19 288 0.0 6.4 0.00 0.00 0.00 59 1023.1
20260509003841 18 288 0.0 6.4 0.00 0.00 0.00 58 1023.1
20260509003556 18 309 0.0 3.2 0.00 0.00 0.00 60 1023.1
20260509002815 18 309 0.0 3.2 0.00 0.00 0.00 60 1023.2
20260509002744 18 308 0.0 3.2 0.00 0.00 0.00 59 1023.3
20260509001800 18 309 0.0 1.6 0.00 0.00 0.00 61 1023.2
20260509001248 18 309 0.0 6.4 0.00 0.00 0.00 61 1023.3
20260509000738 18 309 0.0 6.4 0.00 0.00 0.00 63 1023.3
20260509000229 18 305 0.0 3.2 0.00 0.00 0.00 62 1023.3
20260508235717 17 305 0.0 3.2 0.00 0.00 0.00 59 1023.4
20260508235211 18 5 0.0 1.6 0.00 0.00 0.00 63 1023.3
20260508234647 17 5 0.0 3.2 0.00 0.00 0.00 62 1023.4
20260508234134 17 5 0.0 1.6 0.00 0.00 0.00 62 1023.4
20260508233626 17 5 0.0 0.0 0.00 0.00 0.00 64 1023.3
20260508233121 16 5 0.0 0.0 0.00 0.00 0.00 66 1023.3
20260508232849 16 5 0.0 3.2 0.00 0.00 0.00 67 1023.3
20260508232117 16 5 0.0 3.2 0.00 0.00 0.00 65 1023.3
20260508231617 16 5 0.0 1.6 0.00 0.00 0.00 64 1023.3
20260508231332 16 5 0.0 1.6 0.00 0.00 0.00 67 1023.4
20260508230608 16 5 0.0 1.6 0.00 0.00 0.00 66 1023.4
20260508230318 16 5 0.0 1.6 0.00 0.00 0.00 68 1023.4
20260508225553 16 5 0.0 1.6 0.00 0.00 0.00 68 1023.3
20260508225039 15 5 0.0 3.2 0.00 0.00 0.00 70 1023.3
20260508224539 15 5 0.0 3.2 0.00 0.00 0.00 70 1023.3
20260508224027 15 5 0.0 0.0 0.00 0.00 0.00 72 1023.2
20260508223516 15 5 0.0 0.0 0.00 0.00 0.00 73 1023.1
20260508223228 15 5 0.0 0.0 0.00 0.00 0.00 73 1023.1
20260508222450 15 5 0.0 1.6 0.00 0.00 0.00 72 1023.1
20260508221930 15 5 0.0 0.0 0.00 0.00 0.00 72 1023.0
20260508221416 15 5 0.0 0.0 0.00 0.00 0.00 73 1023.0
20260508220911 13 5 0.0 0.0 0.00 0.00 0.00 76 1023.0
20260508220411 13 5 0.0 0.0 0.00 0.00 0.00 77 1023.0
20260508215841 12 5 0.0 0.0 0.00 0.00 0.00 79 1023.0
20260508215601 11 5 0.0 0.0 0.00 0.00 0.00 81 1022.9
20260508214828 11 250 0.0 0.0 0.00 0.00 0.00 82 1022.9
20260508214326 11 250 0.0 0.0 0.00 0.00 0.00 83 1022.8
20260508213812 11 250 0.0 0.0 0.00 0.00 0.00 84 1022.7
20260508213300 10 250 0.0 0.0 0.00 0.00 0.00 85 1022.6
20260508212755 10 250 0.0 0.0 0.00 0.00 0.00 82 1022.5
20260508212248 10 259 0.0 0.0 0.00 0.00 0.00 82 1022.4
20260508212004 10 259 0.0 0.0 0.00 0.00 0.00 82 1022.3
20260508211233 10 259 0.0 0.0 0.00 0.00 0.00 82 1022.3
20260508211215 10 259 0.0 0.0 0.00 0.00 0.00 82 1022.2
20260508210217 10 259 0.0 0.0 0.00 0.00 0.00 81 1022.2
20260508205707 10 259 0.0 0.0 0.00 0.00 0.00 81 1022.1
20260508205156 10 259 0.0 0.0 0.00 0.00 0.00 80 1022.0
20260508204653 10 259 0.0 1.6 0.00 0.00 0.00 80 1022.0
20260508204143 10 259 0.0 1.6 0.00 0.00 0.00 79 1021.9
20260508203628 10 246 0.0 0.0 0.00 0.00 0.00 79 1021.9
20260508203039 10 246 0.0 0.0 0.00 0.00 0.00 79 1021.9
20260508202803 10 246 0.0 0.0 0.00 0.00 0.00 79 1021.8
20260508202257 10 246 0.0 0.0 0.00 0.00 0.00 79 1021.7
20260508201522 10 246 0.0 0.0 0.00 0.00 0.00 79 1021.6
20260508200940 11 246 0.0 0.0 0.00 0.00 0.00 79 1021.7
20260508200432 11 246 0.0 0.0 0.00 0.00 0.00 79 1021.6
20260508195927 11 246 0.0 0.0 0.00 0.00 0.00 79 1021.6
20260508195350 11 246 0.0 0.0 0.00 0.00 0.00 80 1021.4
20260508194840 11 246 0.0 0.0 0.00 0.00 0.00 80 1021.3
20260508194322 11 246 0.0 0.0 0.00 0.00 0.00 80 1021.3
20260508193758 11 246 0.0 0.0 0.00 0.00 0.00 80 1021.3
20260508193242 11 246 0.0 0.0 0.00 0.00 0.00 81 1021.1
20260508192736 11 246 0.0 0.0 0.00 0.00 0.00 81 1021.0
20260508192442 11 246 0.0 0.0 0.00 0.00 0.00 81 1020.9
20260508191947 11 246 0.0 0.0 0.00 0.00 0.00 81 1020.8
20260508191202 11 246 0.0 0.0 0.00 0.00 0.00 82 1020.8
20260508190702 11 246 0.0 0.0 0.00 0.00 0.00 82 1020.8
20260508190142 11 246 0.0 0.0 0.00 0.00 0.00 81 1020.8
20260508185633 11 246 0.0 0.0 0.00 0.00 0.00 81 1020.8
20260508185105 11 246 0.0 0.0 0.00 0.00 0.00 81 1020.7
20260508184542 11 246 0.0 0.0 0.00 0.00 0.00 81 1020.7
20260508184040 11 246 0.0 0.0 0.00 0.00 0.00 81 1020.7
20260508183540 11 246 0.0 0.0 0.00 0.00 0.00 81 1020.5
20260508183245 11 246 0.0 0.0 0.00 0.00 0.00 81 1020.5
20260508182508 11 246 0.0 0.0 0.00 0.00 0.00 81 1020.5
20260508182004 11 246 0.0 0.0 0.00 0.00 0.00 81 1020.5
20260508181438 11 246 0.0 0.0 0.00 0.00 0.00 81 1020.4
20260508180936 11 246 0.0 0.0 0.00 0.00 0.00 81 1020.3
20260508180423 11 246 0.0 0.0 0.00 0.00 0.00 81 1020.3
20260508175915 11 246 0.0 0.0 0.00 0.00 0.00 80 1020.3
20260508175412 11 246 0.0 0.0 0.00 0.00 0.00 81 1020.3
20260508174846 11 246 0.0 0.0 0.00 0.00 0.00 80 1020.3
20260508174339 11 246 0.0 0.0 0.00 0.00 0.00 81 1020.3
20260508173833 11 246 0.0 0.0 0.00 0.00 0.00 80 1020.3
20260508173323 11 246 0.0 0.0 0.00 0.00 0.00 81 1020.3
20260508173239 11 246 0.0 0.0 0.00 0.00 0.00 81 1020.3
20260508172244 11 246 0.0 0.0 0.00 0.00 0.00 81 1020.3
20260508171732 11 246 0.0 0.0 0.00 0.00 0.00 81 1020.2
20260508171442 11 246 0.0 0.0 0.00 0.00 0.00 81 1020.2
20260508170705 11 246 0.0 0.0 0.00 0.00 0.00 81 1020.2
20260508170202 11 246 0.0 0.0 0.00 0.00 0.00 82 1020.3
20260508165637 11 246 0.0 0.0 0.00 0.00 0.00 82 1020.2
20260508165136 10 246 0.0 0.0 0.00 0.00 0.00 82 1020.2
20260508164618 10 246 0.0 0.0 0.00 0.00 0.00 82 1020.3
20260508164118 10 246 0.0 0.0 0.00 0.00 0.00 82 1020.3
20260508163615 10 246 0.0 0.0 0.00 0.00 0.00 83 1020.3
20260508163116 10 246 0.0 0.0 0.00 0.00 0.00 83 1020.2
20260508162606 10 246 0.0 0.0 0.00 0.00 0.00 83 1020.2
20260508162106 10 246 0.0 0.0 0.00 0.00 0.00 83 1020.2
20260508161554 10 246 0.0 0.0 0.00 0.00 0.00 83 1020.1
20260508161050 10 246 0.0 0.0 0.00 0.00 0.00 83 1020.1
20260508160545 10 246 0.0 0.0 0.00 0.00 0.00 83 1020.0
20260508160033 10 246 0.0 0.0 0.00 0.00 0.00 83 1020.0
20260508155525 10 246 0.0 0.0 0.00 0.00 0.00 83 1020.0
20260508155225 10 246 0.0 0.0 0.00 0.00 0.00 82 1019.9
20260508154453 10 246 0.0 0.0 0.00 0.00 0.00 82 1020.0
20260508153943 10 246 0.0 0.0 0.00 0.00 0.00 82 1020.0
20260508153443 10 246 0.0 0.0 0.00 0.00 0.00 82 1020.0
20260508152936 10 246 0.0 0.0 0.00 0.00 0.00 82 1020.0
20260508152421 10 246 0.0 0.0 0.00 0.00 0.00 81 1020.1
20260508151856 10 246 0.0 0.0 0.00 0.00 0.00 81 1020.1
20260508151355 10 246 0.0 0.0 0.00 0.00 0.00 80 1020.1
20260508151314 11 246 0.0 0.0 0.00 0.00 0.00 80 1020.1
20260508150329 11 246 0.0 0.0 0.00 0.00 0.00 80 1020.1
20260508145819 11 246 0.0 0.0 0.00 0.00 0.00 80 1020.1
20260508145301 11 246 0.0 0.0 0.00 0.00 0.00 79 1020.1
20260508144731 11 246 0.0 0.0 0.00 0.00 0.00 79 1020.1
20260508144141 11 246 0.0 0.0 0.00 0.00 0.00 78 1020.0
20260508143642 11 246 0.0 0.0 0.00 0.00 0.00 78 1020.1
20260508143131 11 246 0.0 0.0 0.00 0.00 0.00 77 1020.1
20260508142555 11 246 0.0 0.0 0.00 0.00 0.00 77 1020.1
20260508142045 12 246 0.0 0.0 0.00 0.00 0.00 77 1020.1
20260508141535 12 246 0.0 0.0 0.00 0.00 0.00 77 1020.0
20260508141026 12 246 0.0 0.0 0.00 0.00 0.00 77 1020.1
20260508140519 12 246 0.0 0.0 0.00 0.00 0.00 77 1020.0
20260508140019 12 246 0.0 0.0 0.00 0.00 0.00 77 1019.9
20260508135502 12 246 0.0 0.0 0.00 0.00 0.00 77 1019.8
20260508134958 11 246 0.0 0.0 0.00 0.00 0.00 77 1019.9
20260508134447 11 246 0.0 0.0 0.00 0.00 0.00 77 1019.8
20260508133936 11 246 0.0 0.0 0.00 0.00 0.00 78 1019.9
20260508133437 11 246 0.0 0.0 0.00 0.00 0.00 78 1019.9
20260508132935 11 246 0.0 0.0 0.00 0.00 0.00 78 1019.9
20260508132652 11 246 0.0 0.0 0.00 0.00 0.00 77 1019.9
20260508132150 12 246 0.0 0.0 0.00 0.00 0.00 76 1019.8
20260508131403 12 246 0.0 0.0 0.00 0.00 0.00 76 1019.9
20260508130903 12 246 0.0 0.0 0.00 0.00 0.00 76 1019.9
20260508130353 11 246 0.0 0.0 0.00 0.00 0.00 78 1019.9
20260508125847 11 246 0.0 0.0 0.00 0.00 0.00 77 1019.9
20260508125606 11 246 0.0 0.0 0.00 0.00 0.00 76 1019.9
20260508124830 12 246 0.0 0.0 0.00 0.00 0.00 76 1019.9
20260508124331 12 246 0.0 0.0 0.00 0.00 0.00 75 1019.9
20260508123831 12 246 0.0 0.0 0.00 0.00 0.00 75 1019.8
20260508123554 12 246 0.0 0.0 0.00 0.00 0.00 75 1019.7
20260508122819 12 246 0.0 0.0 0.00 0.00 0.00 75 1019.7
20260508122242 12 246 0.0 0.0 0.00 0.00 0.00 75 1019.7
20260508121734 12 246 0.0 0.0 0.00 0.00 0.00 75 1019.7
20260508121234 12 246 0.0 0.0 0.00 0.00 0.00 75 1019.9
20260508120729 12 246 0.0 0.0 0.00 0.00 0.00 75 1019.9
20260508120207 12 246 0.0 0.0 0.00 0.00 0.00 75 1019.8
20260508115645 12 246 0.0 0.0 0.00 0.00 0.00 74 1019.9
20260508115138 12 246 0.0 0.0 0.00 0.00 0.00 74 1019.8
20260508114632 12 246 0.0 0.0 0.00 0.00 0.00 74 1019.9
20260508114108 12 246 0.0 0.0 0.00 0.00 0.00 74 1019.9
20260508113549 12 246 0.0 0.0 0.00 0.00 0.00 74 1019.8
20260508113038 12 246 0.0 0.0 0.00 0.00 0.00 73 1019.9
20260508112533 12 246 0.0 0.0 0.00 0.00 0.00 73 1019.8
20260508112000 12 246 0.0 0.0 0.00 0.00 0.00 73 1019.7
20260508111501 12 246 0.0 0.0 0.00 0.00 0.00 73 1019.7
20260508111001 12 246 0.0 0.0 0.00 0.00 0.00 73 1019.6
20260508110438 12 246 0.0 0.0 0.00 0.00 0.00 73 1019.6
20260508105925 12 246 0.0 0.0 0.00 0.00 0.00 72 1019.5
20260508105417 12 246 0.0 0.0 0.00 0.00 0.00 73 1019.3
20260508105140 12 246 0.0 0.0 0.00 0.00 0.00 73 1019.4
20260508104357 12 246 0.0 0.0 0.00 0.00 0.00 73 1019.4
20260508103845 12 246 0.0 0.0 0.00 0.00 0.00 72 1019.4
20260508103608 12 246 0.0 0.0 0.00 0.00 0.00 72 1019.4
20260508103105 12 246 0.0 0.0 0.00 0.00 0.00 71 1019.3
20260508102336 13 246 0.0 0.0 0.00 0.00 0.00 71 1019.3
20260508101832 13 246 0.0 0.0 0.00 0.00 0.00 71 1019.2
20260508101327 13 246 0.0 0.0 0.00 0.00 0.00 70 1019.1
20260508100823 13 246 0.0 0.0 0.00 0.00 0.00 70 1019.1
20260508100517 13 246 0.0 0.0 0.00 0.00 0.00 69 1019.0
20260508095801 13 246 0.0 0.0 0.00 0.00 0.00 69 1019.0
20260508095240 13 246 0.0 0.0 0.00 0.00 0.00 68 1019.0
20260508094738 13 246 0.0 0.0 0.00 0.00 0.00 68 1018.9
20260508094228 13 246 0.0 0.0 0.00 0.00 0.00 68 1018.8
20260508093718 13 246 0.0 0.0 0.00 0.00 0.00 68 1018.8
20260508093218 13 246 0.0 0.0 0.00 0.00 0.00 68 1018.7
20260508092642 14 246 0.0 0.0 0.00 0.00 0.00 67 1018.7
20260508092143 14 246 0.0 0.0 0.00 0.00 0.00 66 1018.7
20260508091642 14 246 0.0 0.0 0.00 0.00 0.00 66 1018.7
20260508091132 14 246 0.0 1.6 0.00 0.00 0.00 66 1018.7
20260508090628 14 246 0.0 1.6 0.00 0.00 0.00 66 1018.6